User: anonymous   Login
Location: Oshawa
(43.9000°N, 78.8670°W)
Time: 16:32:09
(UTC-05:00)
Language:

CZ-4C R/B - Orbit

View from above orbital plane
View from above orbital plane
View from above satellite
View from above satellite

Ground track
Ground track

The orbit data is extracted from the following two-line orbital elements,

1 32290U 07055B   14353.81556874  .00013627  00000-0  49252-3 0   369
2 32290 097.5603 070.0203 0084683 119.5344 358.2153 15.25170289392535
Epoch (UTC): 19 December 2014 19:34:25
Eccentricity: 0.0084683
inclination: 97.5603°
perigee height: 432 km
apogee height: 548 km
right ascension of ascending node: 70.0203°
argument of perigee: 119.5344°
revolutions per day: 15.25170289
mean anomaly at epoch: 358.2153°
orbit number at epoch: 39253

The dashed part of the orbit path shows where the satellite is in the earth's shadow,  

DLR